FDX1408 KMEM-KCPR

Flight info

Callsign FDX1408
Flight time N/A
Altitude 34000
Route PIEPE6 IBUFY TXK IRW GCK GLD CYS
Aircraft B752/M-SDE2E3FGHIJ3J4J7RWXY/LB1

Departure

Time N/A
Airport Memphis International Airport (KMEM)

Arrival

Time 2026-04-17 18:59
Airport Casper-Natrona County International Airport (KCPR)
Time Latitude Longitude Altitude Speed Heading
2026-04-17 18:33 41.17413 -104.70724 34015 ft 447 kts 298°
2026-04-17 18:33 41.19373 -104.74026 34040 ft 454 kts 303°
2026-04-17 18:33 41.21708 -104.76975 34024 ft 467 kts 313°
2026-04-17 18:33 41.24408 -104.79415 34064 ft 476 kts 322°
2026-04-17 18:34 41.30546 -104.83128 34025 ft 485 kts 328°
2026-04-17 18:34 41.36768 -104.86822 34003 ft 483 kts 327°
2026-04-17 18:35 41.42906 -104.90524 34000 ft 484 kts 327°
2026-04-17 18:35 41.48981 -104.94214 33979 ft 482 kts 327°
2026-04-17 18:36 41.55105 -104.97952 34001 ft 484 kts 327°
2026-04-17 18:36 41.61268 -105.01720 33990 ft 481 kts 328°
2026-04-17 18:37 41.67386 -105.05473 34005 ft 483 kts 328°
2026-04-17 18:37 41.70473 -105.07372 33745 ft 489 kts 328°
2026-04-17 18:37 41.73537 -105.09254 33236 ft 486 kts 328°
2026-04-17 18:38 41.76624 -105.11147 32744 ft 478 kts 327°
2026-04-17 18:38 41.79599 -105.12979 32245 ft 471 kts 328°
2026-04-17 18:38 41.82545 -105.14798 31759 ft 470 kts 327°
2026-04-17 18:38 41.85548 -105.16656 31272 ft 475 kts 327°
2026-04-17 18:39 41.88561 -105.18523 30766 ft 480 kts 327°
2026-04-17 18:39 41.91635 -105.20425 30254 ft 482 kts 327°
2026-04-17 18:39 41.94656 -105.22292 29742 ft 478 kts 327°
2026-04-17 18:39 41.97659 -105.24153 29250 ft 472 kts 328°
2026-04-17 18:40 42.00641 -105.26006 28778 ft 474 kts 328°
2026-04-17 18:40 42.03599 -105.27846 28308 ft 472 kts 328°
2026-04-17 18:40 42.06584 -105.29700 27780 ft 470 kts 328°
2026-04-17 18:40 42.09536 -105.31538 27221 ft 464 kts 328°
2026-04-17 18:41 42.12440 -105.33347 26666 ft 463 kts 328°
2026-04-17 18:41 42.15370 -105.35176 26108 ft 459 kts 328°
2026-04-17 18:41 42.18221 -105.36956 25510 ft 454 kts 328°
2026-04-17 18:41 42.21087 -105.38746 24931 ft 450 kts 328°
2026-04-17 18:42 42.23927 -105.40527 24339 ft 448 kts 328°
2026-04-17 18:42 42.26741 -105.42288 23756 ft 442 kts 328°
2026-04-17 18:42 42.29491 -105.44012 23162 ft 433 kts 329°
2026-04-17 18:42 42.32161 -105.45686 22582 ft 425 kts 329°
2026-04-17 18:43 42.34846 -105.47375 22021 ft 420 kts 329°
2026-04-17 18:43 42.37465 -105.49021 21457 ft 409 kts 329°
2026-04-17 18:43 42.40021 -105.50630 20913 ft 404 kts 329°
2026-04-17 18:43 42.42548 -105.52223 20389 ft 399 kts 329°
2026-04-17 18:44 42.45038 -105.53793 19875 ft 391 kts 330°
2026-04-17 18:44 42.47463 -105.55325 19391 ft 383 kts 330°
2026-04-17 18:44 42.49848 -105.56831 18904 ft 378 kts 330°
2026-04-17 18:44 42.52225 -105.58336 18431 ft 375 kts 331°
2026-04-17 18:45 42.54584 -105.59828 17963 ft 371 kts 331°
2026-04-17 18:45 42.56909 -105.61302 17513 ft 367 kts 332°
2026-04-17 18:45 42.59208 -105.62759 17060 ft 363 kts 332°
2026-04-17 18:45 42.61521 -105.64226 16597 ft 361 kts 333°
2026-04-17 18:46 42.63809 -105.65678 16156 ft 358 kts 332°
2026-04-17 18:46 42.66073 -105.67117 15726 ft 354 kts 333°
2026-04-17 18:46 42.68292 -105.68527 15316 ft 351 kts 333°
2026-04-17 18:46 42.70505 -105.69936 14905 ft 349 kts 333°
2026-04-17 18:47 42.72715 -105.71343 14500 ft 346 kts 333°
2026-04-17 18:47 42.74892 -105.72730 14104 ft 344 kts 333°
2026-04-17 18:47 42.77088 -105.74132 13709 ft 342 kts 334°
2026-04-17 18:47 42.79219 -105.75490 13332 ft 340 kts 334°
2026-04-17 18:48 42.81349 -105.76850 12950 ft 337 kts 334°
2026-04-17 18:48 42.83472 -105.78207 12579 ft 336 kts 334°
2026-04-17 18:48 42.85571 -105.79549 12206 ft 334 kts 334°
2026-04-17 18:48 42.87680 -105.80900 11839 ft 333 kts 334°
2026-04-17 18:49 42.89744 -105.82286 11475 ft 329 kts 327°
2026-04-17 18:49 42.91498 -105.84264 11140 ft 329 kts 310°
2026-04-17 18:49 42.92715 -105.86861 10768 ft 316 kts 295°
2026-04-17 18:49 42.93538 -105.89523 10449 ft 295 kts 294°
2026-04-17 18:50 42.94305 -105.92014 10205 ft 274 kts 293°
2026-04-17 18:50 42.94999 -105.94315 10067 ft 254 kts 293°
2026-04-17 18:50 42.95653 -105.96502 9940 ft 244 kts 293°
2026-04-17 18:50 42.96274 -105.98595 9806 ft 234 kts 293°
2026-04-17 18:51 42.96875 -106.00632 9679 ft 224 kts 292°
2026-04-17 18:51 42.97446 -106.02570 9537 ft 213 kts 292°
2026-04-17 18:51 42.98001 -106.04459 9422 ft 215 kts 292°
2026-04-17 18:51 42.98569 -106.06396 9318 ft 223 kts 292°
2026-04-17 18:52 42.99153 -106.08387 9190 ft 224 kts 292°
2026-04-17 18:52 42.99712 -106.10297 9060 ft 222 kts 292°
2026-04-17 18:52 43.00282 -106.12247 8926 ft 221 kts 292°
2026-04-17 18:52 43.00856 -106.14211 8792 ft 222 kts 292°
2026-04-17 18:53 43.01431 -106.16180 8658 ft 222 kts 292°
2026-04-17 18:53 43.02005 -106.18150 8518 ft 222 kts 292°
2026-04-17 18:53 43.02587 -106.20145 8377 ft 222 kts 292°
2026-04-17 18:53 43.03140 -106.22045 8232 ft 214 kts 292°
2026-04-17 18:54 43.03679 -106.23899 8131 ft 203 kts 292°
2026-04-17 18:54 43.04169 -106.25672 7951 ft 196 kts 284°
2026-04-17 18:54 43.04070 -106.27438 7848 ft 183 kts 246°
2026-04-17 18:54 43.03289 -106.28795 7743 ft 181 kts 230°
2026-04-17 18:55 43.02424 -106.30068 7615 ft 183 kts 230°
2026-04-17 18:55 43.01549 -106.31316 7482 ft 181 kts 228°
2026-04-17 18:55 43.00673 -106.32527 7356 ft 178 kts 228°
2026-04-17 18:55 42.99779 -106.33742 7259 ft 182 kts 227°
2026-04-17 18:56 42.98879 -106.34949 7127 ft 175 kts 227°
2026-04-17 18:56 42.98054 -106.36043 7008 ft 157 kts 227°
2026-04-17 18:56 42.97293 -106.37051 6996 ft 149 kts 226°
2026-04-17 18:56 42.96561 -106.38026 6910 ft 148 kts 227°
2026-04-17 18:57 42.95846 -106.39019 6686 ft 144 kts 227°
2026-04-17 18:57 42.95144 -106.39926 6433 ft 135 kts 225°
2026-04-17 18:57 42.94459 -106.40810 6100 ft 136 kts 225°
2026-04-17 18:57 42.93771 -106.41688 5873 ft 135 kts 226°
2026-04-17 18:58 42.93101 -106.42580 5728 ft 136 kts 226°
2026-04-17 18:58 42.92415 -106.43475 5578 ft 136 kts 226°
2026-04-17 18:58 42.91740 -106.44363 5433 ft 136 kts 225°
2026-04-17 18:58 42.91056 -106.45261 5352 ft 132 kts 225°
2026-04-17 18:59 42.90445 -106.46055 5333 ft 99 kts 224°
2026-04-17 18:59 42.90091 -106.46520 5332 ft 54 kts 225°
2026-04-17 18:59 42.89865 -106.46813 5331 ft 33 kts 224°
2026-04-17 18:59 42.89758 -106.46943 5332 ft 13 kts 198°
2026-04-17 19:00 42.89669 -106.46943 5332 ft 9 kts 177°
2026-04-17 19:00 42.89615 -106.46920 5331 ft 7 kts 124°
2026-04-17 19:00 42.89624 -106.46854 5330 ft 9 kts 51°
2026-04-17 19:00 42.89676 -106.46784 5330 ft 11 kts 42°
2026-04-17 19:01 42.89730 -106.46712 5330 ft 10 kts 50°
2026-04-17 19:01 42.89727 -106.46645 5330 ft 5 kts 135°
2026-04-17 19:01 42.89701 -106.46610 5330 ft 4 kts 136°
2026-04-17 19:01 42.89693 -106.46600 5330 ft 0 kts 134°